Location: Bernadets
(43.3537°N, 0.3167°E)
Time: 13:31:58
(UTC+00:00)

CZ-4 R/B - Pass Details

Date: 24 October 2021
Orbit: 530 x 595 km, 97.8° (Epoch: 07 December)

Event Time Altitude Azimuth Distance (km) Brightness Sun altitude
Exits shadow 19:37:29 - 206° (SSW) 2,084 4.4 -29.0°
Reaches altitude 10° 19:38:09 10° 212° (SSW) 1,854 4.2 -29.1°
Maximum altitude 19:41:24 23° 266° (W) 1,225 3.7 -29.7°
Drops below altitude 10° 19:44:44 10° 320° (NW) 1,898 4.6 -30.2°
Sets 19:47:16 0° 335° (NNW) 2,814 5.4 -30.7°
